| time (UTC) | temp F | wind direction | speed knots | gust knots | rain 1hr in | rain 24hr in | rain mn in | humidity % | barometer mb |
| 20260902160021 | 78 | 227 | 3.5 | 9.6 | 0.00 | 1.33 | 1.33 | 86 | 1010.4 |
| 20260902154503 | 76 | 197 | 7.0 | 10.4 | 0.00 | 1.33 | 1.33 | 66 | 1010.5 |
| 20260902153003 | 75 | 206 | 7.0 | 9.6 | 0.00 | 1.33 | 1.33 | 47 | 1010.5 |
| 20260902151551 | 74 | 212 | 4.3 | 10.4 | 0.00 | 1.33 | 1.33 | 45 | 1010.3 |
| 20260902150043 | 73 | 218 | 4.3 | 9.6 | 0.00 | 1.33 | 1.33 | 44 | 1009.9 |
| 20260902144534 | 72 | 232 | 5.2 | 8.7 | 0.00 | 1.33 | 1.33 | 44 | 1009.8 |
| 20260902143025 | 72 | 175 | 5.2 | 8.7 | 0.00 | 1.33 | 1.33 | 43 | 1009.9 |
| 20260902141506 | 71 | 201 | 4.3 | 9.6 | 0.00 | 1.33 | 1.33 | 43 | 1010.1 |
| 20260902140006 | 70 | 203 | 1.7 | 4.3 | 0.00 | 1.33 | 1.33 | 43 | 1010.1 |
| 20260902134602 | 69 | 205 | 3.5 | 7.8 | 0.00 | 1.33 | 1.33 | 43 | 1010.1 |
| 20260902133049 | 68 | 205 | 4.3 | 7.0 | 0.00 | 1.33 | 1.33 | 42 | 1009.9 |
| 20260902131544 | 68 | 165 | 2.6 | 7.0 | 0.00 | 1.33 | 1.33 | 43 | 1009.7 |
| 20260902130033 | 66 | 171 | 2.6 | 6.1 | 0.00 | 1.33 | 1.33 | 43 | 1009.7 |
| 20260902124535 | 67 | 108 | 0.9 | 3.5 | 0.00 | 1.33 | 1.33 | 43 | 1009.9 |
| 20260902123031 | 0 | 0.0 | 0.0 | 0.00 | 1.33 | 1.33 | 1009.9 | ||
| 20260902121530 | 0 | 0.0 | 0.0 | 0.00 | 1.33 | 1.33 | 1010.0 | ||
| 20260902120034 | 0 | 0.0 | 0.0 | 0.00 | 1.33 | 1.33 | 1009.9 | ||
| 20260902114531 | 0 | 0.0 | 0.0 | 0.00 | 1.33 | 1.33 | 1010.3 | ||
| 20260902113026 | 0 | 0.0 | 0.0 | 0.00 | 1.33 | 1.33 | 1010.2 | ||
| 20260902111512 | 0 | 0.0 | 0.0 | 0.00 | 1.33 | 1.33 | 1010.1 | ||
| 20260902110101 | 0 | 0.0 | 0.0 | 0.00 | 1.33 | 1.33 | 1010.0 | ||
| 20260902104538 | 0 | 0.0 | 0.0 | 0.00 | 1.33 | 1.33 | 1010.0 | ||
| 20260902103039 | 0 | 0.0 | 0.0 | 0.00 | 1.33 | 1.33 | 1009.9 | ||
| 20260902101514 | 0 | 0.0 | 0.0 | 0.00 | 1.33 | 1.33 | 1009.9 | ||
| 20260902100008 | 0 | 0.0 | 0.0 | 0.00 | 1.33 | 1.33 | 1010.1 | ||
| 20260902094547 | 67 | 99 | 6.1 | 10.4 | 0.00 | 1.33 | 1.33 | 44 | 1010.4 |
| 20260902093047 | 67 | 117 | 6.1 | 10.4 | 0.00 | 1.33 | 1.33 | 43 | 1010.8 |
| 20260902091556 | 67 | 117 | 5.2 | 7.8 | 0.00 | 1.33 | 1.33 | 44 | 1011.5 |
| 20260902090029 | 67 | 220 | 0.0 | 4.3 | 0.00 | 1.33 | 1.33 | 44 | 1012.4 |
| 20260902084511 | 67 | 227 | 6.1 | 11.3 | 0.00 | 1.33 | 1.33 | 43 | 1012.3 |
| 20260902083010 | 67 | 148 | 2.6 | 7.0 | 0.00 | 1.33 | 1.33 | 43 | 1010.6 |
| 20260902081551 | 67 | 118 | 6.1 | 8.7 | 0.00 | 1.33 | 1.33 | 44 | 1009.9 |
| 20260902080104 | 67 | 170 | 1.7 | 5.2 | 0.00 | 1.33 | 1.33 | 44 | 1010.4 |
| 20260902074534 | 67 | 95 | 1.7 | 7.0 | 0.00 | 1.33 | 1.33 | 44 | 1010.2 |
| 20260902073033 | 66 | 91 | 4.3 | 13.9 | 0.00 | 1.33 | 1.33 | 45 | 1009.6 |
| 20260902071534 | 66 | 134 | 10.4 | 13.9 | 0.00 | 1.33 | 1.33 | 45 | 1009.0 |
| 20260902070010 | 66 | 120 | 7.0 | 8.7 | 0.01 | 1.33 | 1.33 | 45 | 1009.4 |
| 20260902064617 | 66 | 85 | 3.5 | 7.8 | 0.20 | 1.33 | 1.33 | 45 | 1010.4 |
| 20260902063051 | 66 | 61 | 6.1 | 12.2 | 0.79 | 1.33 | 1.33 | 46 | 1010.6 |
| 20260902061603 | 66 | 60 | 3.5 | 6.1 | 1.09 | 1.33 | 1.33 | 46 | 1010.7 |
| 20260902060033 | 66 | 56 | 0.9 | 4.3 | 1.27 | 1.32 | 1.32 | 47 | 1011.4 |
| 20260902054535 | 67 | 48 | 0.0 | 13.0 | 1.07 | 1.08 | 1.08 | 49 | 1012.7 |
| 20260902053006 | 68 | 295 | 7.0 | 28.7 | 0.51 | 0.52 | 0.52 | 49 | 1013.0 |
| 20260902051502 | 68 | 340 | 2.6 | 11.3 | 0.19 | 0.20 | 0.20 | 62 | 1011.7 |
| 20260902050045 | 72 | 50 | 0.9 | 5.2 | 0.04 | 0.05 | 0.05 | 73 | 1011.0 |
| 20260902044540 | 72 | 341 | 1.7 | 6.1 | 0.00 | 0.01 | 0.01 | 80 | 1010.2 |
| 20260902043017 | 73 | 169 | 0.0 | 5.2 | 0.01 | 0.01 | 0.01 | 86 | 1010.1 |
| 20260902041530 | 76 | 302 | 3.5 | 26.1 | 0.01 | 0.01 | 0.01 | 85 | 1011.0 |
| 20260902040100 | 72 | 209 | 3.5 | 7.8 | 0.01 | 0.01 | 0.01 | 86 | 1010.2 |
| 20260902034558 | 72 | 63 | 3.5 | 6.1 | 0.01 | 0.01 | 0.01 | 85 | 1009.9 |
| 20260902033038 | 72 | 360 | 0.0 | 6.1 | 0.00 | 0.00 | 0.00 | 87 | 1010.3 |
| 20260902031536 | 73 | 60 | 1.7 | 5.2 | 0.00 | 0.00 | 0.00 | 86 | 1010.1 |
| 20260902030020 | 73 | 72 | 0.0 | 1.7 | 0.00 | 0.00 | 0.00 | 84 | 1010.4 |
| 20260902024517 | 73 | 71 | 0.0 | 4.3 | 0.00 | 0.00 | 0.00 | 82 | 1010.4 |
| 20260902023105 | 73 | 77 | 3.5 | 5.2 | 0.00 | 0.00 | 0.00 | 81 | 1010.3 |
| 20260902021603 | 73 | 80 | 3.5 | 4.3 | 0.00 | 0.00 | 0.00 | 85 | 1010.0 |
| 20260902020040 | 73 | 67 | 3.5 | 6.1 | 0.00 | 0.00 | 0.00 | 85 | 1010.1 |
| 20260902014543 | 74 | 70 | 3.5 | 4.3 | 0.00 | 0.00 | 0.00 | 84 | 1010.2 |
| 20260902013018 | 75 | 78 | 3.5 | 5.2 | 0.00 | 0.00 | 0.00 | 84 | 1010.1 |
| 20260902011522 | 76 | 80 | 4.3 | 5.2 | 0.00 | 0.00 | 0.00 | 83 | 1010.1 |
| 20260902010118 | 76 | 64 | 3.5 | 6.1 | 0.00 | 0.00 | 0.00 | 83 | 1010.2 |
| 20260902004556 | 77 | 69 | 0.0 | 4.3 | 0.00 | 0.00 | 0.00 | 86 | 1010.2 |
| 20260902003035 | 77 | 66 | 1.7 | 3.5 | 0.00 | 0.00 | 0.00 | 86 | 1010.0 |
| 20260902001532 | 78 | 78 | 2.6 | 4.3 | 0.00 | 0.00 | 0.00 | 84 | 1010.1 |
| 20260902000020 | 78 | 70 | 3.5 | 5.2 | 0.00 | 0.00 | 0.00 | 84 | 1010.2 |
| 20260901234509 | 79 | 59 | 2.6 | 4.3 | 0.00 | 0.00 | 0.00 | 83 | 1010.3 |
| 20260901233059 | 79 | 72 | 2.6 | 4.3 | 0.00 | 0.00 | 0.00 | 84 | 1010.3 |
| 20260901231555 | 80 | 71 | 3.5 | 4.3 | 0.00 | 0.00 | 0.00 | 82 | 1010.3 |
| 20260901230034 | 80 | 61 | 0.9 | 3.5 | 0.00 | 0.00 | 0.00 | 82 | 1010.3 |
| 20260901224539 | 81 | 86 | 2.6 | 4.3 | 0.00 | 0.00 | 0.00 | 82 | 1010.3 |
| 20260901223040 | 81 | 74 | 2.6 | 5.2 | 0.00 | 0.00 | 0.00 | 80 | 1010.2 |
| 20260901221514 | 81 | 75 | 3.5 | 5.2 | 0.00 | 0.00 | 0.00 | 82 | 1010.3 |
| 20260901220013 | 81 | 94 | 3.5 | 5.2 | 0.00 | 0.00 | 0.00 | 81 | 1010.4 |
| 20260901214513 | 81 | 59 | 2.6 | 5.2 | 0.00 | 0.00 | 0.00 | 82 | 1010.4 |
| 20260901213010 | 82 | 80 | 0.9 | 4.3 | 0.00 | 0.00 | 0.00 | 78 | 1010.7 |
| 20260901211517 | 83 | 107 | 2.6 | 7.0 | 0.00 | 0.00 | 0.00 | 75 | 1010.6 |
| 20260901210006 | 83 | 94 | 2.6 | 5.2 | 0.00 | 0.00 | 0.00 | 81 | 1010.5 |
| 20260901204505 | 83 | 103 | 0.9 | 4.3 | 0.00 | 0.00 | 0.00 | 77 | 1010.9 |
| 20260901203045 | 84 | 85 | 2.6 | 6.1 | 0.00 | 0.00 | 0.00 | 71 | 1010.8 |
| 20260901201543 | 85 | 87 | 4.3 | 7.0 | 0.00 | 0.00 | 0.00 | 70 | 1010.5 |
| 20260901200039 | 85 | 88 | 3.5 | 6.1 | 0.00 | 0.00 | 0.00 | 75 | 1010.6 |
| 20260901194522 | 85 | 95 | 1.7 | 4.3 | 0.00 | 0.00 | 0.00 | 76 | 1010.8 |
| 20260901193004 | 85 | 77 | 2.6 | 4.3 | 0.00 | 0.00 | 0.00 | 76 | 1010.8 |
| 20260901191503 | 86 | 104 | 0.9 | 2.6 | 0.00 | 0.00 | 0.00 | 69 | 1011.1 |
| 20260901190101 | 86 | 140 | 0.0 | 3.5 | 0.00 | 0.00 | 0.00 | 71 | 1011.5 |
| 20260901184546 | 86 | 88 | 2.6 | 6.1 | 0.00 | 0.00 | 0.00 | 67 | 1011.3 |
| 20260901183045 | 86 | 117 | 0.9 | 6.1 | 0.00 | 0.00 | 0.00 | 68 | 1011.3 |
| 20260901181543 | 85 | 122 | 1.7 | 4.3 | 0.00 | 0.00 | 0.00 | 70 | 1011.5 |
| 20260901180038 | 85 | 85 | 0.0 | 1.7 | 0.00 | 0.00 | 0.00 | 76 | 1011.9 |
| 20260901174545 | 85 | 75 | 1.7 | 4.3 | 0.00 | 0.00 | 0.00 | 73 | 1012.1 |
| 20260901173033 | 86 | 79 | 0.9 | 2.6 | 0.00 | 0.00 | 0.00 | 70 | 1012.3 |
| 20260901171536 | 85 | 13 | 0.0 | 4.3 | 0.00 | 0.00 | 0.00 | 73 | 1012.5 |
| 20260901170024 | 85 | 86 | 0.0 | 1.7 | 0.00 | 0.00 | 0.00 | 75 | 1012.5 |
| 20260901164515 | 85 | 118 | 1.7 | 3.5 | 0.00 | 0.00 | 0.00 | 75 | 1012.3 |
| 20260901163102 | 85 | 31 | 0.9 | 3.5 | 0.00 | 0.00 | 0.00 | 75 | 1012.2 |
| 20260901161611 | 85 | 329 | 0.0 | 1.7 | 0.00 | 0.00 | 0.00 | 76 | 1012.2 |